TimeEST,TemperatureF,Dew PointF,Humidity,Sea Level PressureIn,VisibilityMPH,Wind Direction,Wind SpeedMPH,Gust SpeedMPH,PrecipitationIn,Events,Conditions,WindDirDegrees,DateUTC
12:39 AM,33.8,32.0,93,29.71,2.5,NW,4.6,-,0.00,Snow,Light Snow,320,2013-03-01 05:39:00
12:54 AM,33.1,32.0,96,29.75,1.8,NW,6.9,-,0.01,Snow,Light Snow,320,2013-03-01 05:54:00
12:59 AM,33.8,32.0,93,29.71,2.0,NW,10.4,-,0.00,Snow,Light Snow,320,2013-03-01 05:59:00
1:04 AM,33.8,32.0,93,29.71,3.0,North,8.1,-,0.00,Snow,Light Snow,350,2013-03-01 06:04:00
1:10 AM,33.8,32.0,93,29.71,2.0,NNW,8.1,-,0.01,Snow,Light Snow,340,2013-03-01 06:10:00
1:16 AM,33.8,32.0,93,29.71,1.8,NNW,12.7,-,0.01,Snow,Light Snow,330,2013-03-01 06:16:00
1:24 AM,33.8,32.0,93,29.71,3.0,NW,9.2,-,0.01,Snow,Light Snow,320,2013-03-01 06:24:00
1:35 AM,33.8,32.0,93,29.72,5.0,NW,9.2,-,0.01,Snow,Light Snow,320,2013-03-01 06:35:00
2:11 AM,33.8,32.0,93,29.72,2.5,NW,5.8,-,0.00,Snow,Light Snow,320,2013-03-01 07:11:00
2:19 AM,33.8,32.0,93,29.72,4.0,NNW,5.8,-,0.00,Snow,Light Snow,330,2013-03-01 07:19:00
2:31 AM,33.8,32.0,93,29.72,2.5,NW,8.1,-,0.00,Snow,Light Snow,320,2013-03-01 07:31:00
2:39 AM,33.8,32.0,93,29.72,3.0,NNW,8.1,-,0.00,Snow,Light Snow,330,2013-03-01 07:39:00
2:54 AM,33.1,32.0,96,29.77,2.5,NW,10.4,-,0.00,Snow,Light Snow,320,2013-03-01 07:54:00
3:04 AM,33.8,30.2,87,29.73,4.0,NW,12.7,-,0.00,Snow,Light Snow,320,2013-03-01 08:04:00
3:29 AM,32.0,30.2,93,29.73,8.0,NW,11.5,-,0.00,,Overcast,310,2013-03-01 08:29:00
3:54 AM,32.0,30.9,96,29.78,4.0,NW,10.4,-,0.00,Snow,Light Snow,310,2013-03-01 08:54:00
4:09 AM,32.0,30.2,93,29.75,5.0,NW,10.4,-,0.00,Snow,Light Snow,310,2013-03-01 09:09:00
4:54 AM,32.0,30.0,92,29.81,1.5,NNW,9.2,-,0.00,Snow,Light Snow,330,2013-03-01 09:54:00
5:08 AM,32.0,30.2,93,29.77,2.5,NW,9.2,-,0.00,Snow,Light Snow,320,2013-03-01 10:08:00
5:36 AM,30.2,30.2,100,29.77,4.0,NW,10.4,-,0.01,Snow,Light Snow,320,2013-03-01 10:36:00
7:54 AM,30.9,28.0,89,29.86,9.0,NW,12.7,-,0.00,Snow,Light Snow,310,2013-03-01 12:54:00
10:19 AM,30.2,26.6,86,29.83,9.0,NW,8.1,-,0.00,Snow,Light Snow,310,2013-03-01 15:19:00
11:11 AM,32.0,26.6,80,29.85,10.0,WNW,11.5,18.4,N/A,,Overcast,300,2013-03-01 16:11:00
11:54 AM,32.0,26.1,79,29.90,10.0,NW,12.7,-,N/A,,Overcast,320,2013-03-01 16:54:00
12:10 PM,30.2,26.6,86,29.85,10.0,NNW,12.7,-,N/A,,Overcast,330,2013-03-01 17:10:00
12:54 PM,30.9,26.1,82,29.89,10.0,NNW,11.5,-,N/A,,Overcast,330,2013-03-01 17:54:00
1:54 PM,30.0,25.0,82,29.90,9.0,NNW,13.8,-,N/A,,Overcast,340,2013-03-01 18:54:00
2:33 PM,30.2,26.6,86,29.86,2.0,NNW,10.4,-,0.00,Snow,Light Snow,330,2013-03-01 19:33:00
2:46 PM,28.4,24.8,86,29.86,3.0,NNW,12.7,-,0.00,Snow,Light Snow,340,2013-03-01 19:46:00
2:54 PM,28.9,25.0,85,29.91,2.5,NNW,12.7,-,0.00,Snow,Light Snow,330,2013-03-01 19:54:00
3:03 PM,30.2,24.8,80,29.86,4.0,NNW,11.5,-,0.00,Snow,Light Snow,330,2013-03-01 20:03:00
4:54 PM,28.0,23.0,81,29.93,9.0,NNW,12.7,-,N/A,,Overcast,330,2013-03-01 21:54:00
5:17 PM,28.4,24.8,86,29.88,2.0,NW,11.5,-,0.00,Snow,Light Snow,320,2013-03-01 22:17:00
5:26 PM,28.4,23.0,80,29.88,5.0,NW,12.7,-,0.00,,Haze,320,2013-03-01 22:26:00
5:54 PM,28.0,21.9,78,29.94,8.0,NW,12.7,-,0.00,,Overcast,320,2013-03-01 22:54:00
6:54 PM,27.0,19.9,75,29.96,10.0,WNW,8.1,-,N/A,,Overcast,300,2013-03-01 23:54:00
7:54 PM,27.0,19.9,75,29.97,9.0,West,3.5,-,N/A,,Overcast,280,2013-03-02 00:54:00
9:54 PM,26.1,21.0,81,29.97,8.0,Variable,3.5,-,N/A,,Overcast,0,2013-03-02 02:54:00
10:54 PM,26.1,21.9,84,29.96,6.0,Calm,Calm,-,0.00,Snow,Light Snow,0,2013-03-02 03:54:00
11:54 PM,27.0,23.0,85,29.95,6.0,Calm,Calm,-,0.00,Snow,Light Snow,0,2013-03-02 04:54:00